STORKMARKNES/SKAGEN current weather conditions

sailwx.info

Wind from 050 at 7 knots

Air temperature -3.0° C
Visibility: greater than 5.4 NM
Dewpoint -8.0° C

Last reported at 2019-Dec-10 20:20 UTC.
Time now 2019-Dec-11 02:49 UTC

Location: N 68°35' E 015°01'.
View on Google Maps.

See reports from other nearby stations

  
Tides and Currents Weather Stations Pressure Air Temp Water Temp Dewpoint Dewpoint Depression Visibility Wind Speed Wind Dir Waves Ship Positions
date/time (UTC)wind fromknots sea level pressurealtimeterstation pressurevisibilityair tempwater tempwave heightnotes
2019-Dec-10 20:20 050 7 5.4-3.0
2019-Dec-10 19:50 060 6 5.4-4.0
2019-Dec-10 19:20 120 14 5.4-1.0
2019-Dec-10 18:50 120 14 5.4-1.0
2019-Dec-10 18:20 080 8 5.4-3.0
2019-Dec-10 17:50 120 13 5.4-1.0
2019-Dec-10 16:50 050 8 5.4-4.0
2019-Dec-10 16:20 050 8 5.4-5.0
2019-Dec-10 15:50 050 6 5.4-6.0
2019-Dec-10 15:20 030 6 5.4-7.0
2019-Dec-10 14:50 030 5 5.4-7.0
2019-Dec-10 14:20 350 5 5.4-7.0
2019-Dec-10 13:50 350 6 5.4-6.0
2019-Dec-10 13:20 360 5 5.4-6.0
2019-Dec-10 12:50 010 5 5.4-5.0
2019-Dec-10 11:50 360 5 5.4-6.0
2019-Dec-10 11:20 360 5 5.4-6.0
2019-Dec-10 10:50 360 2 5.4-3.0
2019-Dec-10 10:20 5.4-4.0 Showers in the vicinity.
2019-Dec-10 09:50 360 2 5.4-3.0 Showers in the vicinity.
2019-Dec-10 09:20 360 4 5.4-4.0 Light snow showers.
2019-Dec-10 08:50 1.9-3.0 Light snow showers.
2019-Dec-10 08:20 330 2 1.1-3.0 Snow showers.
2019-Dec-10 07:50 020 5 5.4-4.0 Light snow showers.
2019-Dec-10 07:20 080 4 5.4-4.0 Light snow showers.
2019-Dec-10 06:50 320 2 5.4-3.0 Light snow showers.
2019-Dec-10 06:20 320 2 5.4-4.0 Light snow showers.
2019-Dec-10 05:50 360 6 5.4-5.0 Light snow showers.
2019-Dec-10 05:20 350 6 5.4-7.0
2019-Dec-10 04:50 360 6 5.4-6.0
2019-Dec-10 04:20 360 5 5.4-7.0
2019-Dec-10 03:50 040 7 5.4-5.0
2019-Dec-09 21:20 360 6 5.4-0.0 Showers in the vicinity.
2019-Dec-09 20:50 040 4 5.4-1.0 Showers in the vicinity.
2019-Dec-09 20:20 5.4-0.0 Light snow.
2019-Dec-09 19:50 4.9-1.0 Light snow.
2019-Dec-09 19:20 2.7-2.0 Light snow.
2019-Dec-09 18:50 090 5 0.5-2.0 Snow showers.
2019-Dec-09 18:20 350 6 0.5-2.0 Snow showers.
2019-Dec-09 17:50 330 4 5.4-3.0 Showers in the vicinity.
2019-Dec-09 17:20 020 2 5.4-3.0
2019-Dec-09 16:50 010 7 5.4-2.0
2019-Dec-09 16:20 010 7 5.4-3.0
2019-Dec-09 15:50 030 8 5.4-2.0 Showers in the vicinity.
2019-Dec-09 15:20 040 12 5.4-2.0 Light snow showers.
2019-Dec-09 14:50 040 11 3.2-3.0 Light snow showers.
2019-Dec-09 14:20 090 13 0.8-2.0 Light snow showers.
2019-Dec-09 13:50 130 17 1.1-2.0 Light snow showers. Light low drifting snow.
2019-Dec-09 13:20 140 18 1.6-2.0 Light snow showers. Light low drifting snow.
2019-Dec-09 12:50 150 13 1.1-2.0 Snow showers.
2019-Dec-09 12:20 130 4 0.5-3.0 Snow showers.
2019-Dec-09 11:50 130 4 1.3-2.0 Light snow showers.
2019-Dec-09 11:20 200 7 5.4-2.0 Light snow showers.
2019-Dec-09 10:50 200 7 5.4-1.0
2019-Dec-09 10:20 5.4-5.0
2019-Dec-09 09:50 300 5 5.4-6.0
2019-Dec-09 09:20 310 4 5.4-5.0
2019-Dec-09 08:50 290 5 5.4-3.0 Light snow showers.
2019-Dec-09 08:20 310 5 5.4-2.0 Showers in the vicinity.
2019-Dec-09 07:50 5.4-2.0 Light snow showers.
2019-Dec-09 07:20 070 4 5.4-2.0 Light snow showers.
2019-Dec-09 06:50 5.4-2.0 Showers in the vicinity.
2019-Dec-09 06:20 5.4-2.0 Light snow showers.
2019-Dec-09 05:50 340 5 5.4-3.0 Light snow showers.
2019-Dec-09 05:20 330 5 5.4-3.0 Light snow showers.
2019-Dec-09 04:50 360 8 5.4-2.0 Light snow showers.
2019-Dec-09 04:20 360 4 5.4-2.0
2019-Dec-09 03:50 010 6 5.4-3.0